Theta_e
324 323 321 319 318 318 318 318 318 318 313 309 310 313 311 310 313 317 315 310 312 318 320 318 315 312 310 308 307 308 307 307 306 306 306 306 306 306 306 305 305 305 305 305 304 303 303 304 305 305 306 306 305 305 305 306 307 307 307 307 308 308 308 308 309 310 311 314 315 315 315 315 314 315 316 315 314 315 315 315 315 316 316 316 315 315 314
324 323 319 318 318 318 318 318 316 315 314 310 310 310 307 307 310 311 308 309 313 315 315 316 312 307 307 307 308 308 307 307 307 306 306 306 306 306 306 306 306 305 305 305 304 303 304 304 305 305 305 305 305 305 306 307 307 307 307 308 308 308 308 309 310 310 311 313 315 315 315 315 314 315 316 315 313 313 314 315 315 316 317 316 316 315 314
324 322 318 318 318 318 319 318 312 310 309 308 308 308 306 306 309 308 305 308 314 311 307 307 307 306 307 307 307 308 308 307 306 306 306 306 306 306 306 305 306 305 305 304 303 303 304 304 305 305 304 304 305 305 306 307 307 307 308 308 308 309 309 310 310 311 311 313 314 315 314 313 313 314 314 314 314 313 314 315 316 317 317 316 315 315 314
324 321 318 320 319 315 316 318 315 312 310 311 311 310 308 309 313 312 307 311 321 315 305 304 306 306 306 307 308 308 308 307 306 306 306 306 306 306 306 306 306 305 305 304 303 303 304 305 305 304 303 304 305 305 305 306 306 307 308 308 309 309 309 310 311 311 311 312 313 314 313 312 313 313 313 314 314 313 314 315 316 317 318 317 316 315 314
323 320 317 320 319 317 320 322 321 318 314 312 311 309 308 308 312 316 314 317 323 314 306 309 311 306 305 307 308 308 308 307 307 306 306 306 306 306 306 306 305 305 305 304 303 303 304 305 305 304 304 304 304 304 304 304 305 306 307 308 308 309 309 310 310 310 311 311 312 313 312 311 312 313 313 313 313 314 314 314 315 317 318 318 317 317 316
323 321 317 317 317 321 324 319 316 317 317 316 315 316 316 310 309 314 314 315 317 311 309 315 313 309 309 309 308 309 308 307 307 306 306 306 306 306 306 306 305 305 304 304 303 303 304 304 305 305 304 304 304 304 303 303 303 305 307 307 308 308 308 309 310 310 311 311 312 312 311 310 310 311 312 312 313 313 314 314 315 316 317 317 318 318 317
321 321 319 319 320 324 322 314 311 312 313 314 315 317 318 312 309 311 311 312 314 310 309 312 311 309 310 309 309 309 308 308 307 307 307 306 306 306 306 305 305 305 304 304 303 303 304 304 305 305 305 304 305 305 304 303 303 304 305 307 307 307 307 308 309 310 310 311 311 311 310 309 309 310 311 311 312 313 313 314 315 315 315 316 317 317 317
318 318 319 320 322 322 318 312 310 309 310 311 312 315 321 318 312 311 312 311 308 305 307 309 309 309 309 308 309 309 308 308 307 307 307 306 306 306 306 305 305 305 304 303 303 303 303 304 305 305 305 305 305 305 305 304 304 303 304 306 306 306 306 307 308 309 309 310 310 310 310 310 309 309 310 311 312 313 313 314 314 315 315 316 316 317 317
317 319 319 320 320 320 320 317 313 312 313 315 315 318 324 322 311 307 312 312 306 303 307 308 308 308 308 308 308 308 307 307 307 306 307 306 306 306 306 305 305 304 304 303 303 303 303 303 304 304 305 305 304 305 305 305 304 303 303 305 306 305 306 307 308 309 309 309 310 310 310 309 308 309 310 311 312 313 313 314 314 314 315 315 316 316 316
317 318 319 320 321 322 327 326 318 312 311 312 314 318 323 320 309 305 310 312 306 303 305 306 306 307 309 311 311 309 307 307 306 306 306 306 306 306 305 305 305 304 304 304 303 303 303 303 303 303 305 305 304 304 305 305 304 303 303 304 305 305 305 306 307 309 309 309 309 310 310 309 309 309 310 311 312 312 313 313 313 314 314 315 315 315 315
317 317 318 320 321 321 326 326 317 310 308 310 314 320 325 321 310 305 308 309 305 305 306 306 306 308 313 316 315 309 308 308 307 307 306 306 306 306 305 305 305 304 304 304 303 303 303 303 303 303 304 304 303 304 304 305 304 302 302 304 305 305 305 306 307 308 308 309 309 309 310 309 309 309 310 310 311 311 312 313 313 313 313 314 314 314 315
318 318 319 319 319 319 320 319 314 310 309 312 316 321 325 321 310 307 308 308 307 308 307 306 307 310 316 318 313 309 309 308 307 307 307 306 306 306 306 305 304 304 304 304 303 303 303 304 303 303 303 303 303 303 304 305 304 302 302 303 304 305 305 305 306 307 308 308 308 309 309 309 309 309 309 309 310 311 311 312 312 312 313 313 313 313 314
318 317 318 318 320 321 318 315 313 310 309 315 320 322 323 318 311 310 311 310 311 310 308 307 309 310 312 312 310 309 309 308 308 308 307 306 306 306 305 305 305 304 304 304 303 303 303 303 303 302 303 303 303 303 303 304 304 302 302 303 304 304 304 305 306 306 307 307 307 307 307 307 307 308 308 308 309 309 310 311 311 312 312 312 312 312 313
317 317 318 318 319 319 314 311 311 309 311 320 324 321 316 313 312 312 311 311 311 310 309 310 310 310 311 310 309 309 309 309 308 308 307 307 306 306 305 305 305 304 304 304 303 303 303 303 303 303 303 303 303 302 303 304 304 302 301 302 303 304 304 304 305 305 306 306 305 306 306 306 306 306 306 307 307 308 308 309 309 310 310 310 311 311 311
316 315 317 320 322 318 312 311 312 312 316 323 321 315 312 312 312 312 311 311 311 310 310 310 310 311 311 310 309 309 309 309 309 308 307 307 307 306 305 305 305 304 305 304 303 303 303 303 303 303 302 303 303 302 302 303 303 302 301 302 303 304 304 304 304 305 305 305 305 305 305 305 306 306 306 306 307 307 307 307 308 308 308 309 309 309 310
318 318 320 323 322 316 312 313 315 315 317 317 314 313 313 312 312 312 312 312 311 311 311 311 311 311 310 309 309 309 309 309 309 308 308 307 307 306 306 305 305 305 305 305 304 303 303 303 304 303 302 303 303 302 302 303 303 301 301 301 302 303 303 303 303 304 304 304 304 305 305 305 305 305 305 306 306 306 306 306 306 307 307 308 308 308 309
319 321 322 319 314 311 312 314 315 314 314 314 313 314 314 313 313 313 313 312 312 311 311 311 311 311 310 309 309 309 309 309 309 308 308 307 307 306 306 305 306 305 305 305 304 304 303 303 304 303 302 303 303 302 302 303 302 301 300 300 300 301 301 302 302 302 302 303 303 304 304 304 304 304 304 304 304 304 304 304 304 305 306 306 307 307 307
317 316 315 312 310 311 313 313 314 314 313 313 313 313 314 314 314 313 313 313 312 312 311 311 311 310 310 309 309 309 309 309 309 309 308 307 307 306 306 306 306 305 305 305 305 304 304 304 304 303 302 303 303 302 302 303 302 301 301 300 300 300 300 300 300 300 300 301 302 302 303 303 303 303 303 303 303 303 303 303 303 303 304 305 305 306 306
316 317 319 315 311 312 313 313 314 314 313 314 314 313 314 314 314 314 313 313 313 312 311 312 311 310 310 310 310 309 309 309 309 309 308 308 307 307 306 306 306 305 305 306 305 305 304 304 304 303 302 303 303 302 302 303 302 301 301 300 300 300 300 300 300 299 299 299 300 301 302 302 302 302 302 301 301 301 301 302 302 302 303 303 304 304 305
316 319 320 314 311 313 313 312 314 314 313 314 314 313 314 314 313 314 314 313 313 312 312 312 311 310 310 310 309 309 309 309 309 308 308 308 307 307 307 306 306 306 306 306 305 304 304 303 303 303 303 303 303 301 301 302 302 302 301 301 300 300 300 300 300 300 299 299 299 300 301 301 301 301 300 300 300 300 300 300 301 302 302 302 302 303 303
315 316 315 312 313 315 313 312 314 313 314 314 314 314 314 314 314 314 313 313 313 312 312 312 311 310 310 309 309 309 309 309 309 309 309 308 307 307 307 306 306 306 306 306 305 304 303 303 303 303 303 303 302 302 301 302 302 302 301 301 300 300 300 300 300 300 300 299 299 299 300 300 300 300 299 299 299 299 299 299 300 300 301 301 302 302 302
317 317 315 314 315 316 314 313 313 313 313 314 314 314 314 314 314 314 313 313 313 312 312 312 310 310 310 309 309 309 309 309 309 309 309 308 308 308 307 307 307 307 306 306 305 304 303 303 303 303 303 302 302 301 301 301 302 302 302 301 301 300 300 300 300 300 300 299 299 299 299 299 298 298 299 299 299 298 298 298 298 299 300 301 301 301 302
317 315 314 313 312 313 312 312 313 313 313 313 314 314 314 314 314 314 313 313 313 313 312 311 310 310 310 309 309 309 309 309 309 309 309 309 308 308 308 307 307 307 306 306 306 304 303 303 303 303 302 301 301 301 301 301 301 302 302 302 301 300 300 300 300 300 300 300 299 299 299 299 298 298 298 298 298 298 298 297 297 298 299 300 300 301 301
313 313 314 313 311 311 312 312 313 314 313 313 314 314 314 314 314 314 314 313 313 313 312 311 310 310 309 309 309 309 309 309 309 309 309 308 308 308 308 307 307 307 307 307 306 305 304 303 302 303 302 301 300 301 301 300 300 301 302 302 302 301 300 300 300 300 300 300 299 299 299 299 299 298 298 297 297 297 297 297 297 297 298 299 299 300 300
313 313 313 312 312 312 312 312 313 314 314 314 314 314 314 314 314 314 314 313 313 313 312 311 310 310 309 309 309 309 309 309 309 309 308 308 308 308 307 306 306 307 307 307 306 305 304 302 302 303 303 302 301 301 301 300 300 299 300 301 302 301 301 300 300 300 300 300 300 299 299 299 299 299 298 297 296 296 296 296 296 296 297 298 298 299 299
313 313 313 313 313 313 312 312 313 314 314 314 314 314 314 314 314 314 314 313 313 312 312 311 311 310 309 309 309 309 309 309 309 309 308 308 307 307 306 306 306 306 306 307 306 305 304 303 302 302 302 303 302 302 301 301 299 299 299 300 300 301 301 301 300 300 300 300 300 299 299 299 299 298 297 296 296 295 294 295 295 295 295 296 297 298 298
314 314 314 313 313 313 313 312 313 314 314 314 314 315 314 314 314 314 313 313 312 311 311 311 310 310 309 309 309 309 309 309 309 309 308 307 307 306 306 305 305 306 306 307 306 305 304 303 302 301 302 303 303 303 302 301 299 298 298 299 299 300 300 301 301 301 301 300 300 299 299 299 299 298 297 296 296 295 294 294 293 294 294 294 295 297 297
314 315 314 313 313 313 312 312 312 313 313 314 314 314 314 314 314 314 313 312 311 310 311 311 310 310 309 309 309 309 309 309 309 308 308 307 306 306 306 306 306 306 306 306 306 305 304 303 302 301 301 302 303 303 303 301 299 297 298 298 299 299 299 300 301 301 300 300 300 299 299 298 299 298 297 296 296 295 294 294 293 293 293 293 294 295 296
314 314 314 313 312 312 312 312 313 313 313 314 314 314 314 314 313 313 313 312 310 310 310 310 310 310 309 309 309 310 309 309 309 308 308 307 307 306 307 306 306 306 306 306 305 305 304 304 303 301 301 302 302 302 303 302 299 297 296 296 296 297 298 299 300 301 300 299 299 299 298 297 298 298 297 296 295 295 295 294 293 293 293 293 293 293 294
314 314 314 313 313 313 313 313 313 313 313 314 314 314 314 314 314 313 313 312 311 310 310 310 310 309 309 309 309 310 310 309 309 309 308 307 307 307 307 307 307 306 306 305 305 304 304 304 303 301 301 302 302 302 302 301 298 296 295 294 295 296 298 299 299 300 299 298 297 298 297 297 297 297 296 296 295 294 294 294 293 293 293 293 293 293 293
314 314 314 314 313 313 313 313 313 313 313 313 314 314 314 314 314 313 313 312 311 311 310 310 310 309 309 310 310 310 310 309 309 309 308 307 307 307 307 307 307 306 306 305 304 304 304 304 303 301 300 301 301 301 301 299 297 295 295 294 295 296 297 298 298 299 298 297 296 296 296 296 296 296 296 295 295 294 294 293 293 293 293 293 293 293 293
313 313 313 313 313 313 313 313 313 313 313 313 313 314 314 314 313 313 313 312 311 310 310 310 310 310 310 310 310 310 310 310 309 309 308 308 308 307 307 307 306 306 305 305 304 303 303 303 303 301 300 301 301 301 299 297 296 295 295 294 294 296 297 297 298 297 296 296 296 296 295 296 296 295 295 295 294 294 294 294 293 293 293 293 293 293 293
312 312 313 313 313 313 313 313 313 313 313 313 313 313 314 314 314 313 313 311 311 310 310 310 310 310 310 310 310 310 310 310 309 309 309 308 308 308 308 307 307 306 305 305 304 304 303 303 302 301 301 301 301 301 299 297 295 295 295 294 294 295 296 297 297 297 296 296 296 296 296 296 296 295 295 294 295 295 295 295 295 295 294 293 293 293 293
311 312 312 313 313 313 313 313 313 313 313 313 313 313 313 314 314 313 313 312 311 311 311 311 311 311 310 310 310 310 310 310 310 309 309 309 309 309 308 308 307 306 306 305 305 304 303 303 302 301 301 302 302 301 300 297 295 295 295 294 294 295 296 297 297 297 297 297 297 296 297 297 297 296 296 296 296 297 297 297 297 297 296 294 294 293 293
312 312 312 313 313 313 313 314 314 314 313 313 313 313 313 314 314 313 312 312 311 311 311 311 311 311 311 310 310 310 310 310 310 310 310 310 310 309 309 308 307 307 306 306 306 305 303 302 301 301 301 301 301 302 300 298 296 296 295 294 294 294 295 296 297 297 297 298 297 297 297 297 297 297 297 297 297 298 298 298 298 298 297 296 295 294 294
313 313 313 314 314 314 314 314 314 314 314 313 313 313 313 313 313 313 313 313 312 312 311 311 311 311 311 310 310 310 310 310 310 310 311 310 310 309 309 308 308 307 306 306 306 305 304 302 301 301 301 301 301 301 300 298 296 296 295 294 294 294 295 296 296 297 297 298 298 298 298 298 298 298 298 298 298 298 298 298 298 298 298 297 297 296 296
314 314 314 314 314 314 314 314 314 314 314 314 314 314 313 313 313 313 313 313 312 312 311 311 311 311 311 311 311 311 310 310 311 311 311 310 310 310 309 309 308 307 306 307 307 306 305 303 301 300 301 302 302 302 301 299 297 296 295 295 295 295 295 296 297 297 297 298 298 298 298 298 298 298 298 298 298 298 298 299 299 298 298 298 298 298 297
314 314 314 314 314 314 314 314 314 314 314 314 314 314 313 313 313 313 313 313 313 312 311 311 311 311 311 311 311 311 311 311 311 311 311 311 310 310 309 309 309 308 308 308 308 307 306 304 302 301 301 303 303 304 303 302 300 298 296 295 295 296 297 298 299 299 299 299 300 300 300 301 301 301 301 300 299 298 298 298 299 299 299 299 299 299 298
314 314 314 314 314 314 314 314 314 314 314 314 314 314 314 313 313 313 313 313 313 312 312 311 311 311 311 311 311 311 311 311 311 311 311 311 310 310 310 310 310 310 310 310 309 308 306 304 303 302 302 303 303 303 304 303 302 300 298 297 298 299 300 301 301 301 301 302 303 303 303 303 303 303 303 302 301 300 298 298 298 298 299 299 299 299 299
314 314 314 314 314 314 314 314 314 314 314 314 314 314 314 313 313 313 313 314 313 313 312 311 311 311 311 311 311 311 311 311 311 311 311 311 311 310 310 310 311 311 310 310 310 308 307 305 304 304 304 303 303 303 303 303 303 301 299 299 300 302 302 301 302 302 303 304 304 304 304 304 304 303 303 303 302 302 300 299 298 298 298 299 299 299 299
313 314 314 314 314 314 314 314 314 314 314 314 314 314 314 314 313 313 313 313 313 313 312 312 311 311 311 311 311 311 311 311 311 311 311 311 311 311 310 311 311 311 311 310 310 309 308 307 305 305 305 305 304 303 303 303 303 301 300 300 302 302 302 302 302 303 304 304 304 304 304 304 303 303 302 302 302 302 301 300 299 299 298 299 299 299 299
313 313 313 314 314 314 314 314 314 314 314 314 314 314 314 314 314 313 313 313 313 313 312 312 311 311 311 311 311 311 311 311 311 311 311 311 311 311 311 311 311 311 311 310 310 310 309 309 308 307 307 306 306 305 304 303 303 302 301 301 302 303 302 302 302 303 304 304 304 304 303 303 303 303 302 302 302 301 301 301 301 300 299 299 299 299 299
313 313 313 313 314 314 314 314 313 313 313 314 313 313 314 314 314 314 314 313 313 312 312 312 311 311 311 311 311 311 311 311 311 311 311 311 311 311 311 311 311 311 311 310 310 310 309 309 309 309 309 308 307 306 305 305 304 303 302 301 301 301 301 302 302 303 303 303 303 303 303 303 303 302 302 302 301 301 301 300 300 300 300 300 299 299 299
313 313 313 313 313 314 314 314 314 313 314 314 313 313 313 313 313 314 313 313 313 312 312 311 311 311 311 311 311 311 311 311 311 311 311 311 311 311 310 310 310 310 310 310 310 310 309 309 309 308 308 308 307 306 306 305 305 304 303 302 301 301 301 301 301 302 302 301 301 301 302 302 303 302 302 302 302 301 300 299 299 299 299 300 300 299 299
313 313 313 313 313 313 314 314 314 314 314 314 314 314 313 313 313 313 312 312 312 312 311 312 312 312 312 312 312 311 310 310 310 310 310 310 310 310 310 309 309 309 310 310 310 310 310 309 309 308 308 308 308 307 307 306 306 305 304 303 302 302 301 301 300 300 300 299 299 300 301 301 302 303 303 302 301 299 298 298 297 297 297 298 299 298 298
313 313 313 313 313 313 314 314 314 314 314 313 313 313 313 312 311 312 311 311 311 312 311 312 312 312 311 311 311 310 310 309 309 309 309 309 309 309 309 309 309 309 310 310 310 309 309 309 309 308 308 308 307 307 307 306 306 305 304 304 303 302 301 300 300 300 300 301 302 302 302 302 302 303 302 300 299 298 297 297 296 295 295 296 296 296 296
313 313 313 313 313 313 313 314 313 313 313 313 312 312 311 311 311 311 311 311 312 312 312 312 312 311 311 311 310 310 309 309 309 309 309 309 309 309 309 309 309 310 310 309 309 309 309 308 308 308 308 307 307 307 307 306 306 305 305 304 303 301 300 300 300 301 302 303 304 304 303 303 303 302 300 298 297 297 297 296 296 295 294 294 294 295 295
313 313 313 313 313 313 313 313 313 313 312 312 311 311 311 311 312 311 312 312 312 312 311 311 311 311 310 310 309 309 308 308 309 309 308 308 309 309 309 309 309 309 309 309 309 309 308 308 308 308 308 308 308 307 307 306 306 305 304 304 303 302 301 302 303 304 304 304 304 304 303 303 302 300 298 297 297 297 297 297 296 296 295 295 295 295 295
312 313 313 313 313 312 312 312 312 312 312 312 312 312 312 312 312 311 311 311 311 311 310 310 309 309 309 308 308 308 308 308 308 308 308 308 308 308 308 309 309 309 308 308 308 308 308 308 308 308 308 307 307 307 306 305 305 305 304 304 304 303 304 304 304 304 304 304 303 303 303 302 301 299 297 297 298 298 297 297 297 296 296 295 295 295 295
312 313 313 313 313 312 311 311 312 313 313 313 313 313 313 312 312 311 311 311 311 310 309 309 308 308 308 308 308 307 307 307 307 307 307 306 307 307 307 308 308 308 308 308 308 308 308 307 307 307 307 307 306 306 305 305 304 304 304 304 304 304 304 304 304 304 304 303 303 303 302 301 299 298 298 298 298 298 297 297 297 296 296 296 296 296 295
313 313 313 313 313 312 312 312 312 313 313 312 313 313 312 312 311 311 311 310 310 309 308 308 308 308 308 307 307 306 306 306 306 305 305 305 305 306 306 306 307 307 307 307 307 307 307 307 306 306 306 306 306 306 305 305 305 305 304 304 304 304 304 304 304 303 303 302 302 301 300 299 298 298 298 298 298 298 297 297 297 297 296 296 296 295 295
313 313 313 313 313 312 312 312 312 312 312 312 312 312 311 311 311 310 310 310 309 308 308 308 308 308 307 307 306 306 305 305 305 305 305 305 304 305 305 306 307 306 306 306 306 306 306 306 306 306 306 306 306 305 305 305 305 304 304 304 304 303 303 303 302 302 301 301 300 299 299 298 298 298 298 298 297 297 297 297 297 296 296 296 296 295 295
Wind_Speed
5 4 5 3 3 2 3 5 5 5 6 7 7 6 5 7 5 5 5 6 5 7 6 6 8 9 10 14 18 17 13 13 14 13 13 12 11 9 8 7 8 8 9 11 15 17 15 13 15 17 19 22 23 21 19 16 14 14 14 14 13 14 16 15 13 10 5 4 5 6 6 8 10 12 13 12 13 13 11 13 14 15 16 17 18 20 21
5 4 4 4 4 2 1 3 4 5 7 9 7 3 3 4 4 4 3 4 7 8 7 8 8 9 10 12 14 14 12 13 15 14 13 13 12 11 9 8 7 8 9 11 14 15 13 13 16 18 19 22 22 19 17 15 14 13 13 13 13 13 14 14 14 11 6 3 4 5 6 8 9 11 12 13 15 15 13 13 13 12 12 13 14 16 16
5 4 2 1 1 3 4 3 2 2 5 4 2 1 2 2 4 3 3 2 7 7 9 10 9 7 7 8 11 13 12 14 14 13 13 13 13 11 9 8 8 8 10 10 12 13 11 13 16 17 19 20 18 17 16 15 14 13 11 12 12 11 11 13 14 12 8 6 5 6 9 10 9 10 13 14 16 17 16 13 11 9 10 10 11 11 12
4 3 4 4 3 2 3 6 3 5 6 4 3 3 4 5 4 3 3 1 6 6 6 6 5 6 8 11 13 13 13 14 15 14 14 14 13 11 9 8 8 9 10 10 11 11 10 13 15 16 18 18 17 17 17 16 15 13 11 11 11 10 11 12 12 12 11 9 8 7 10 11 10 11 12 13 16 19 18 13 10 8 8 9 9 9 10
4 4 3 2 3 5 5 6 5 8 5 3 3 3 5 7 7 6 4 5 6 4 2 4 4 5 8 13 15 15 15 16 16 15 14 13 12 10 9 9 9 9 9 9 10 10 11 13 13 14 17 16 16 18 19 18 16 14 12 10 10 10 11 11 11 11 11 10 9 9 10 11 12 12 12 13 15 19 19 15 9 7 6 7 8 8 9
4 6 3 3 4 3 5 5 6 8 6 6 6 5 7 8 6 3 4 5 4 3 4 6 7 9 11 14 16 16 16 17 17 16 14 12 12 10 9 9 9 9 8 9 9 10 11 11 10 12 15 15 16 18 20 21 20 17 14 12 11 11 11 10 9 9 10 10 9 10 12 14 14 13 13 14 15 17 19 17 12 6 6 6 7 8 9
2 3 4 4 3 6 6 4 2 5 5 7 8 6 6 9 9 7 7 6 6 8 11 11 11 13 13 13 14 15 15 16 15 14 14 13 12 11 10 9 8 8 8 8 8 9 11 11 9 10 14 14 15 17 19 22 23 20 16 14 13 14 13 11 8 7 9 10 10 11 14 16 17 16 15 15 15 16 18 18 16 10 5 5 7 7 9
1 2 3 0 5 7 4 3 1 2 2 4 3 5 6 8 10 9 9 10 9 10 13 12 10 11 12 11 13 14 15 16 15 13 13 12 11 9 8 7 7 6 6 7 8 9 10 11 9 10 13 14 15 16 18 20 23 22 18 15 15 16 15 13 10 8 8 10 11 12 14 16 18 18 17 17 17 16 16 16 16 15 10 5 5 7 9
1 1 1 2 4 6 5 3 2 4 3 4 5 2 6 7 10 11 9 8 8 10 11 9 7 7 5 5 11 16 17 16 15 14 13 10 9 9 7 7 6 5 6 6 8 10 10 10 10 11 12 13 16 17 18 19 22 23 20 16 16 18 17 15 13 10 8 9 11 12 13 16 18 19 19 18 17 17 16 15 16 16 15 11 6 5 7
2 3 1 3 4 4 5 6 6 5 5 6 7 3 4 7 9 15 12 6 7 10 8 8 10 8 4 2 9 15 18 19 16 15 14 11 9 8 7 7 5 5 5 5 8 11 11 9 9 10 11 13 16 18 17 18 21 23 21 18 17 19 19 16 14 12 10 9 9 11 13 16 18 18 19 19 18 17 15 14 14 15 15 14 12 9 6
2 4 1 2 2 4 7 7 6 3 6 8 8 5 4 7 8 13 14 9 8 12 15 16 14 8 3 5 9 10 14 19 18 15 14 12 10 8 7 7 5 4 5 5 8 11 10 7 8 10 11 13 15 17 16 16 19 22 21 19 18 19 19 17 14 13 10 9 9 11 13 16 17 17 18 18 18 16 13 12 11 12 13 13 12 11 10
2 3 2 3 3 5 6 6 4 5 10 8 7 4 6 6 5 10 15 12 12 16 19 19 13 6 5 7 7 7 8 17 18 15 14 12 9 8 8 7 5 3 4 5 8 9 7 6 8 10 12 14 15 15 15 15 18 21 21 19 17 18 18 17 15 12 10 9 10 11 13 14 15 15 16 15 15 13 11 10 9 9 10 10 10 10 10
3 3 2 3 4 5 6 4 6 11 9 5 4 2 7 5 4 10 14 13 13 17 21 19 13 10 11 9 6 5 4 12 15 14 13 11 8 7 7 7 5 5 4 5 8 8 7 8 10 11 12 13 14 14 13 14 17 20 20 18 16 16 16 16 16 13 11 11 11 11 12 13 13 14 14 14 13 13 11 10 9 8 8 7 7 7 8
2 3 2 2 4 5 3 4 8 11 6 1 3 6 4 4 7 11 13 13 14 17 20 20 16 13 13 13 11 6 4 8 10 11 12 11 10 10 9 8 7 6 6 5 7 7 7 9 10 11 12 13 14 15 13 12 16 19 19 17 15 14 15 15 16 15 14 13 13 13 13 13 14 15 15 15 15 14 13 12 10 9 8 7 6 6 6
2 1 2 1 4 4 9 13 7 4 4 3 5 6 4 5 9 11 12 13 14 15 18 19 17 14 13 12 11 9 8 7 7 10 11 11 10 10 9 8 7 7 7 6 7 7 7 8 9 11 12 13 14 15 12 11 14 17 18 16 14 13 13 14 14 15 14 13 13 13 14 14 15 15 16 16 16 15 14 13 12 10 10 8 7 7 6
3 2 2 3 3 7 19 16 5 8 12 7 2 5 5 7 9 10 12 13 12 13 15 15 16 17 15 11 9 9 9 9 9 10 12 11 11 10 9 8 7 7 8 7 7 8 8 8 9 10 12 13 14 15 11 9 12 16 16 15 14 12 12 12 13 13 13 12 12 12 13 13 14 15 16 16 17 17 17 16 15 13 12 11 10 9 8
4 4 6 6 3 7 21 20 12 12 16 14 7 4 4 6 9 9 10 11 11 12 12 13 14 16 15 12 10 9 9 9 10 10 11 12 11 10 9 8 7 8 7 7 8 8 8 9 9 10 12 13 13 14 10 8 11 14 15 14 14 14 14 13 14 14 13 12 12 12 12 13 14 15 16 17 18 19 19 19 19 18 16 15 14 13 12
4 5 8 7 4 6 15 21 20 16 13 13 12 9 6 5 7 8 8 9 10 10 11 12 13 14 13 11 9 9 9 9 10 10 11 12 12 11 10 9 8 7 6 6 8 9 9 9 9 10 12 11 12 13 9 7 10 13 13 14 14 14 15 16 16 16 16 14 12 12 12 13 15 16 17 18 19 20 21 22 22 22 22 21 20 19 19
3 4 6 5 4 8 11 16 21 23 19 14 13 13 12 8 6 7 8 8 9 10 10 11 11 11 11 10 9 9 10 10 11 11 12 12 12 12 11 8 7 7 6 7 8 9 9 9 9 11 11 10 11 12 8 6 8 11 12 13 14 14 16 17 18 18 19 18 15 13 12 13 14 16 17 19 20 21 22 23 24 24 25 25 24 24 23
2 5 9 10 11 12 11 11 16 21 22 19 15 13 12 10 7 7 8 9 10 10 10 10 10 10 10 9 8 9 10 11 11 11 11 12 12 12 11 9 8 8 6 7 8 9 8 8 8 10 10 9 10 10 8 5 6 8 10 12 13 14 14 15 17 18 19 20 18 16 15 15 16 17 18 19 21 22 23 24 25 25 26 26 26 26 26
4 6 9 11 10 10 11 12 14 16 18 20 18 14 12 12 10 8 9 11 11 10 10 9 10 10 9 8 7 8 9 10 10 10 10 10 12 12 11 10 9 8 7 7 8 8 6 6 7 9 10 9 9 9 8 5 5 6 8 10 11 12 13 13 14 16 18 19 19 18 17 16 17 18 18 19 20 21 23 24 24 25 25 26 26 26 26
5 5 7 6 3 5 12 18 19 18 17 17 19 18 15 14 13 11 11 12 12 11 11 10 11 11 9 7 7 8 9 9 8 7 8 9 10 11 11 11 10 9 8 8 8 6 4 5 7 8 9 9 8 9 8 6 4 5 6 8 9 10 11 11 12 14 15 16 17 17 17 17 17 17 17 18 19 20 21 22 22 23 24 24 25 25 25
7 10 15 13 6 8 14 21 21 18 17 16 18 20 18 16 14 12 12 13 14 13 12 12 13 11 8 6 6 7 7 8 7 6 7 7 8 8 9 10 10 9 9 10 9 6 4 5 6 8 8 8 8 8 7 6 5 5 5 7 8 9 10 10 11 12 13 14 15 15 16 16 17 17 17 17 17 18 19 20 20 21 22 22 23 24 24
12 17 21 18 11 12 19 23 20 15 14 15 18 20 19 16 14 13 13 14 14 14 14 15 15 12 8 7 7 5 5 7 7 7 6 6 6 7 8 8 8 8 9 10 9 6 4 4 5 7 7 7 7 7 7 7 7 6 5 6 8 9 10 10 10 10 12 13 14 14 14 15 16 17 18 17 16 16 17 18 19 20 20 21 21 22 23
16 18 20 18 17 20 23 24 18 13 12 14 16 18 18 16 15 15 15 15 14 14 15 16 16 14 11 9 8 7 6 7 7 7 7 7 7 7 7 6 7 8 8 9 9 7 6 4 4 5 7 7 7 7 7 8 8 7 6 6 7 8 9 9 9 10 11 12 13 13 14 15 16 17 18 19 18 17 16 15 16 17 19 19 20 21 21
18 21 23 23 23 24 23 21 17 13 13 13 15 16 17 15 15 15 16 15 13 13 15 16 15 14 12 11 10 8 7 7 7 8 8 8 8 7 6 5 5 6 7 9 9 7 6 5 3 4 6 7 7 8 8 9 9 8 7 7 8 9 9 9 9 9 10 11 12 12 13 14 15 16 17 18 19 19 17 16 16 16 17 17 18 19 20
24 26 25 22 21 22 21 19 17 15 13 14 15 16 16 15 16 16 15 14 13 13 14 15 14 13 13 12 11 10 9 8 9 9 9 9 7 5 5 5 5 5 7 8 8 7 6 5 5 4 4 6 8 8 8 9 10 9 7 7 8 9 10 9 9 9 10 10 11 11 11 12 13 15 16 17 18 19 19 18 18 18 19 18 18 18 18
25 26 23 20 19 22 22 20 20 18 15 16 17 17 17 17 17 17 17 15 13 14 16 17 15 15 14 13 13 13 11 10 10 10 10 8 6 5 6 7 7 7 7 8 8 8 7 6 6 5 4 5 7 8 8 10 11 10 8 8 9 9 10 9 9 10 10 10 10 10 11 10 11 13 15 16 17 18 19 19 19 19 20 20 19 18 18
22 21 21 20 19 19 19 18 17 16 16 18 19 20 20 20 19 19 18 17 15 15 18 19 18 16 15 14 14 13 13 11 11 10 9 8 7 7 8 9 8 9 9 9 9 9 9 8 8 6 4 4 6 7 8 10 11 10 9 8 9 9 9 8 9 10 11 10 9 10 10 9 9 11 13 15 16 18 19 20 20 20 21 20 20 20 19
24 21 20 21 20 18 18 18 17 15 16 19 21 23 24 23 22 21 20 18 17 17 18 19 19 19 17 16 16 14 12 11 10 9 9 9 8 9 9 10 11 11 11 10 10 10 10 9 9 7 5 5 6 7 8 9 10 10 9 9 8 8 8 8 8 10 11 10 9 9 9 9 8 10 12 14 15 17 18 19 19 20 20 20 20 20 20
28 26 24 24 24 22 21 21 18 15 17 20 23 26 26 25 24 23 22 20 19 19 18 19 20 20 19 18 17 15 13 11 9 10 10 11 11 11 11 11 11 10 9 9 8 9 10 10 9 8 6 6 6 6 7 8 9 8 8 8 8 7 7 7 8 9 9 8 8 8 9 8 8 9 10 12 13 15 16 17 17 18 19 19 19 19 20
29 28 28 27 25 23 21 19 16 15 17 21 25 28 28 27 27 26 24 23 21 20 19 20 21 20 19 18 17 16 15 13 11 11 12 13 13 13 12 11 10 9 7 7 8 9 10 10 9 7 6 5 6 6 6 7 7 7 7 7 7 6 6 6 6 7 7 5 6 7 8 8 8 9 9 10 11 12 14 15 16 17 17 18 18 19 19
25 25 25 24 21 19 17 15 14 14 16 21 25 28 29 30 30 27 24 22 22 21 21 21 20 19 18 18 18 17 16 15 14 14 15 14 14 13 12 11 11 9 8 7 8 9 11 10 9 7 6 6 6 6 6 7 7 6 5 6 6 5 5 5 5 5 5 5 5 6 7 7 8 8 8 9 11 12 13 14 15 16 17 18 18 19 19
22 22 22 21 19 18 18 17 16 16 16 18 22 28 31 31 30 26 23 22 23 23 22 21 20 19 18 19 20 19 18 18 18 17 16 14 13 13 12 12 11 11 10 8 8 9 11 10 9 9 8 8 7 7 7 6 6 6 5 5 5 5 4 3 3 3 4 4 5 5 6 7 8 8 8 9 10 12 13 14 15 16 17 17 18 18 19
18 18 18 17 17 18 18 17 17 18 18 18 20 26 32 34 30 25 24 25 25 24 22 20 19 19 19 19 20 21 21 21 20 18 15 14 13 13 14 14 14 14 12 11 9 8 8 10 11 11 10 9 9 8 7 6 6 6 6 6 6 5 4 3 2 2 2 3 4 5 6 7 7 8 8 9 10 11 12 13 14 15 16 16 17 17 18
14 14 14 13 14 14 14 14 14 15 18 19 20 23 29 34 32 27 25 26 26 23 22 21 21 20 20 20 21 22 22 22 20 18 16 15 15 15 16 17 17 16 15 13 10 8 8 10 11 12 11 10 8 7 7 6 6 7 7 7 7 6 5 4 3 2 2 3 4 5 6 7 8 9 9 10 10 10 11 12 13 13 14 15 15 16 17
13 12 12 12 13 15 15 13 14 15 17 19 20 21 26 33 34 30 25 26 27 26 23 23 22 22 21 21 21 22 22 21 19 18 16 15 16 17 18 18 18 18 18 16 12 9 9 10 11 12 12 10 9 7 6 6 7 8 8 8 8 8 6 5 3 3 3 3 4 5 6 8 9 10 11 11 12 12 12 11 11 12 12 13 14 15 16
12 11 11 11 13 16 17 16 17 18 18 19 20 21 24 29 32 30 26 26 28 28 26 24 23 22 22 21 21 22 22 20 19 18 17 17 18 19 20 19 19 19 19 16 12 10 11 11 12 13 14 12 10 9 7 6 7 8 9 9 9 8 7 5 4 3 3 3 4 5 6 8 9 11 12 13 14 14 14 14 13 12 12 11 12 13 14
14 12 12 11 13 16 18 16 15 17 17 18 18 19 22 26 29 30 28 28 28 28 28 26 24 23 23 23 23 23 22 20 19 18 18 19 19 20 20 20 18 18 18 16 12 11 13 13 13 15 15 14 13 11 10 8 8 8 9 10 10 9 8 7 6 5 4 4 5 6 7 7 9 12 14 15 16 16 16 16 15 14 13 12 12 12 13
16 14 12 11 12 13 13 15 14 13 14 15 15 15 17 21 25 30 32 30 27 27 28 27 25 25 25 24 24 24 21 19 19 19 19 20 21 21 22 21 20 19 19 18 15 14 15 15 16 16 16 16 16 15 13 11 10 10 11 12 12 11 10 9 8 8 8 7 8 9 9 9 9 11 13 15 17 17 18 18 17 17 16 15 14 13 13
18 16 13 11 11 12 11 13 15 14 13 13 14 14 14 15 19 28 34 32 26 26 28 28 27 26 25 24 24 23 20 19 18 18 19 20 21 22 23 24 22 20 20 19 17 17 17 18 18 19 18 18 18 17 16 15 14 13 13 14 14 13 13 12 12 11 11 11 11 12 12 12 12 12 13 14 16 17 18 19 19 19 19 19 18 18 17
21 20 17 13 11 10 10 11 13 14 14 15 16 16 15 15 17 22 28 28 26 25 27 28 27 25 23 22 22 21 19 19 18 18 19 21 22 23 25 24 22 20 20 19 18 18 19 19 19 21 21 21 20 19 19 18 17 16 16 16 16 16 15 15 14 14 14 14 14 14 14 14 14 14 14 15 15 16 17 18 20 20 21 22 22 23 23
23 23 21 18 14 12 11 11 12 13 13 14 15 16 16 17 19 20 23 25 25 24 24 25 25 24 22 21 20 20 19 18 17 17 18 20 21 22 22 22 19 18 19 19 17 18 20 20 20 20 20 21 21 21 21 20 20 20 19 18 18 17 17 17 16 16 15 15 14 14 14 15 15 15 15 15 15 16 18 19 20 21 22 22 23 24 24
23 24 24 22 18 16 14 13 13 13 14 15 16 16 15 16 20 23 24 24 23 22 21 22 23 22 20 20 20 19 17 15 15 16 17 18 19 20 19 18 18 18 18 18 17 16 17 19 20 21 21 20 20 21 21 21 22 22 22 20 19 18 18 18 18 17 16 14 13 13 14 15 16 16 16 16 17 18 19 21 22 23 24 24 24 24 24
23 24 24 22 19 18 18 17 16 16 17 18 18 18 16 16 19 23 24 23 21 21 21 21 21 20 18 18 18 16 13 12 14 16 17 17 18 18 16 16 16 16 16 16 15 15 15 16 18 19 19 19 19 20 22 23 23 24 24 24 22 20 18 18 16 15 14 14 14 15 16 17 18 18 18 18 18 20 21 23 24 25 26 27 27 27 27
21 22 22 21 18 15 15 16 16 16 16 16 16 16 15 14 16 17 17 17 17 18 19 19 18 16 13 13 14 14 12 11 14 16 17 16 16 15 14 14 15 15 14 12 12 13 14 14 14 15 17 18 20 21 21 22 23 24 25 25 24 21 17 16 15 15 15 17 19 20 20 19 19 19 19 20 21 22 23 25 26 27 28 28 28 28 27
20 21 22 20 16 11 9 11 13 13 13 12 11 9 8 9 12 14 14 14 15 16 17 18 17 15 12 12 13 12 11 12 14 15 15 14 13 13 14 14 14 13 11 10 11 12 13 13 14 15 17 18 19 20 22 23 24 23 22 23 23 21 18 16 16 17 19 21 23 22 20 20 20 20 20 21 22 23 24 25 26 27 28 28 28 28 27
19 20 20 18 15 10 7 7 7 7 6 5 5 8 10 11 13 15 14 13 13 14 14 16 16 15 14 12 10 8 9 11 12 11 9 9 10 11 11 12 12 11 11 11 11 12 13 13 15 16 16 17 20 22 23 22 20 17 16 17 18 19 18 18 19 20 21 22 22 20 20 19 19 19 20 21 23 24 25 27 28 28 29 30 30 30 29
20 20 18 16 13 9 5 3 2 2 2 4 5 7 9 11 12 10 7 7 11 14 14 13 11 10 10 11 10 9 9 8 7 7 8 8 9 9 9 10 10 11 10 10 10 11 12 13 14 15 15 16 18 18 16 13 11 10 11 13 15 17 18 20 21 22 22 21 21 20 19 19 19 19 21 22 24 26 27 29 30 31 31 31 31 31 30
17 16 16 15 13 9 8 6 4 8 8 7 8 10 11 12 11 11 12 15 17 16 13 9 9 9 10 11 11 11 9 8 6 6 8 9 8 8 8 9 9 9 10 10 10 11 12 12 11 12 12 13 13 12 11 9 8 9 11 13 16 17 19 21 22 22 21 21 20 20 20 20 21 22 24 25 27 28 29 30 31 31 32 32 32 31 31
14 13 12 11 10 9 10 10 11 14 14 12 12 13 13 11 9 10 13 15 14 12 12 12 12 12 12 12 10 9 8 6 6 7 8 8 8 8 8 7 7 8 8 9 10 11 11 11 10 11 12 12 13 12 12 13 13 14 15 16 18 19 19 19 19 19 20 20 20 21 22 23 25 26 28 29 30 30 31 31 31 32 32 32 32 32 31
16 14 12 11 10 10 11 13 16 17 15 14 13 13 13 12 11 11 12 14 14 14 14 13 13 12 11 10 9 8 7 7 8 10 10 10 9 9 9 9 9 10 10 10 11 12 13 13 14 14 14 14 15 15 15 15 16 16 16 17 17 17 17 18 18 19 20 21 22 23 24 26 27 29 30 30 31 31 31 31 31 32 32 31 31 31 31
Wind_Direction
252 222 236 222 184 223 204 188 201 184 166 169 178 207 203 151 157 250 233 172 200 248 247 226 222 219 222 227 226 224 226 227 224 225 225 226 239 259 275 296 312 325 334 343 355 357 354 353 353 353 352 348 349 352 350 346 345 346 348 346 346 347 345 346 346 340 340 351 334 326 334 338 341 345 344 336 328 324 320 312 303 292 282 274 267 261 257
299 278 262 207 186 242 239 211 224 192 177 184 187 213 213 178 209 233 186 194 239 250 242 237 238 232 231 233 227 224 226 225 223 226 226 230 244 257 273 293 302 316 328 338 352 355 354 353 352 354 352 349 352 357 355 353 353 351 352 353 354 355 356 355 349 340 334 340 340 340 338 339 344 349 348 340 328 321 315 307 302 297 289 282 275 267 260
305 303 334 76 149 226 236 282 323 132 153 170 168 165 184 214 265 242 164 240 274 260 237 242 258 251 233 230 222 221 226 225 223 225 227 236 248 255 271 287 292 309 323 334 346 353 354 352 353 359 359 356 1 5 2 0 359 356 358 1 359 1 4 359 350 341 331 327 350 348 329 333 347 343 341 345 342 338 332 320 307 299 292 284 275 269 262
280 307 10 4 13 15 283 289 270 164 154 166 199 205 186 181 184 154 122 240 266 259 232 230 249 232 219 222 219 217 222 222 223 228 232 241 249 256 270 279 288 306 317 329 342 350 352 350 355 6 10 10 10 8 4 0 355 353 360 7 9 14 19 12 357 346 332 328 349 350 333 342 356 344 340 350 351 349 350 341 320 306 302 297 285 271 262
266 303 2 355 20 21 318 278 213 180 188 203 211 242 228 196 156 134 164 222 237 244 188 176 208 218 219 226 223 219 219 219 223 230 239 248 252 256 267 272 284 304 313 326 338 346 349 349 359 10 11 14 14 10 8 2 353 349 353 4 15 20 24 22 12 358 342 331 338 340 333 337 341 338 340 348 351 354 358 356 335 304 297 301 294 280 268
267 291 335 16 14 343 269 245 182 174 187 186 191 225 225 201 182 182 225 239 243 230 186 181 199 211 218 228 230 227 226 225 227 234 241 249 251 252 259 267 281 300 313 328 339 348 352 350 358 7 7 11 14 13 13 12 6 1 357 0 12 17 17 17 10 359 351 344 339 332 328 330 334 339 344 348 354 356 358 4 2 329 290 279 280 279 273
247 306 12 20 311 248 241 264 229 193 181 173 194 245 240 201 209 241 258 253 234 219 208 203 214 222 223 233 237 233 232 232 233 239 244 246 246 247 253 265 283 303 319 335 341 346 352 351 352 358 0 4 8 8 10 13 13 10 6 4 9 13 12 12 6 351 347 353 351 339 336 340 342 345 348 352 359 359 358 6 13 4 328 277 266 269 270
239 9 54 99 259 260 274 326 302 186 127 141 186 288 278 214 200 213 234 240 227 216 218 222 233 235 229 235 239 232 229 230 231 238 246 248 248 248 256 270 288 309 325 341 343 338 342 347 347 347 350 355 360 0 2 7 9 10 10 9 11 12 9 10 12 2 347 347 346 341 344 346 344 348 356 360 2 0 359 4 10 13 10 335 280 262 261
164 125 209 255 308 318 319 305 216 183 174 167 163 244 277 237 198 192 214 240 220 207 222 227 211 201 205 245 246 230 223 225 227 233 242 250 251 249 260 275 287 313 325 335 342 334 330 337 343 342 342 346 351 355 359 2 4 8 11 13 15 15 13 13 18 16 3 351 346 346 349 347 347 355 4 6 4 2 1 1 4 9 14 13 356 305 270
111 104 303 326 358 319 275 261 245 219 207 177 141 120 299 272 221 202 203 223 202 184 186 174 161 151 123 298 261 238 224 222 224 228 233 239 243 248 263 273 278 315 330 326 330 330 327 332 341 341 339 342 348 354 359 2 3 7 11 14 17 18 16 16 20 23 18 7 359 356 355 356 360 6 9 6 4 4 2 1 1 2 7 12 12 2 340
114 113 161 219 233 252 246 255 269 227 180 158 110 63 312 281 243 210 199 203 196 174 163 158 150 131 133 245 271 266 231 220 220 226 230 232 237 247 258 264 269 306 324 318 327 333 332 334 341 345 344 343 348 355 359 2 5 8 11 14 17 18 16 18 24 26 22 15 10 7 7 10 12 11 10 7 5 5 3 1 3 3 3 6 6 5 4
163 130 163 216 240 247 237 248 252 179 165 141 81 34 272 265 253 211 197 197 193 177 166 159 152 155 199 230 290 308 239 219 219 224 229 231 239 250 256 259 261 273 293 313 333 340 344 347 348 349 345 343 348 356 2 4 6 9 12 13 16 17 17 21 27 29 24 18 15 16 17 19 17 14 13 13 11 10 10 8 8 7 4 3 0 358 358
163 163 218 268 263 248 250 245 183 160 149 98 70 204 234 240 224 204 197 198 193 180 173 170 181 213 227 239 287 317 230 212 216 223 227 229 238 253 256 252 248 250 270 312 338 340 339 346 349 348 345 346 352 359 3 4 7 10 12 13 16 18 19 24 26 28 31 29 25 27 27 25 26 27 28 28 28 28 25 23 23 21 16 12 6 0 356
154 175 213 287 284 259 212 138 146 150 139 118 211 209 217 203 198 198 197 200 199 190 190 196 210 232 242 249 263 270 223 207 216 223 224 224 234 244 243 243 245 248 261 301 334 337 331 335 340 343 344 347 354 360 2 5 10 12 12 12 16 19 21 26 27 30 37 40 38 39 37 33 34 36 35 34 34 34 34 34 34 32 30 26 20 13 6
148 95 90 85 292 247 145 123 116 156 181 211 201 185 178 186 194 199 202 206 207 204 207 214 225 238 247 251 249 235 216 215 224 226 227 232 242 244 243 248 254 255 261 289 321 330 330 329 328 335 341 343 350 358 1 7 12 13 13 14 17 20 23 28 30 31 36 39 38 38 36 32 31 30 28 28 27 27 28 27 24 23 21 17 13 6 359
132 115 178 196 249 190 161 153 174 214 210 222 184 156 183 197 198 207 214 215 216 216 219 225 229 235 241 241 226 212 212 223 229 230 234 240 243 244 247 251 257 259 264 286 309 313 321 324 319 328 339 340 348 357 4 13 16 15 16 18 20 22 23 25 28 28 28 28 29 31 29 27 25 23 21 21 22 22 23 22 20 19 16 12 9 5 357
176 189 222 234 274 190 184 195 227 228 221 229 219 182 207 213 210 223 228 221 218 219 224 229 230 232 235 231 221 219 222 228 231 235 239 241 242 247 249 247 255 263 266 290 307 304 305 310 311 327 337 337 346 360 7 14 17 18 21 23 26 30 32 32 32 30 27 23 21 22 23 22 21 21 20 18 20 21 23 25 26 27 27 26 24 22 19
260 269 258 250 276 244 215 220 235 241 240 239 228 223 239 235 228 239 240 230 222 215 216 223 228 230 229 225 226 229 226 229 235 240 242 241 241 245 247 246 253 261 267 293 309 303 297 300 309 328 334 332 343 359 7 12 18 22 23 22 27 35 38 39 38 35 32 29 23 23 25 24 21 20 19 19 19 21 23 27 29 30 32 32 31 31 31
292 288 268 257 275 278 259 244 242 243 246 248 238 232 238 244 246 251 249 240 227 217 216 223 227 226 223 221 227 228 225 229 236 238 242 243 241 245 251 251 252 255 268 298 311 304 298 302 314 325 328 329 342 357 6 9 15 21 21 19 24 32 35 36 37 35 34 32 30 29 30 30 27 24 22 21 21 22 24 26 28 30 30 29 29 29 28
228 253 275 295 305 299 291 272 257 251 248 244 237 231 233 236 239 248 248 238 226 222 226 229 224 218 216 216 222 225 225 230 235 239 245 247 245 249 252 249 247 253 271 299 306 301 306 318 323 322 321 324 339 353 2 4 8 17 17 16 20 25 26 28 31 33 32 32 34 35 32 29 29 28 26 25 23 23 23 23 24 26 27 26 26 24 22
284 281 289 305 319 320 314 304 293 283 268 251 237 228 226 226 228 237 239 234 231 231 234 230 219 210 208 210 216 223 227 230 232 238 246 249 249 251 252 250 253 259 271 289 294 297 315 334 330 321 317 318 331 348 356 356 358 5 9 13 18 19 18 20 24 28 30 30 32 35 35 31 29 28 27 26 25 24 24 23 22 23 24 25 25 23 21
279 262 274 294 303 291 302 309 308 303 293 267 239 226 223 223 225 232 234 231 231 231 231 225 214 206 203 203 208 219 225 227 230 238 245 247 249 252 253 252 255 259 265 276 283 289 316 338 334 326 322 321 329 342 349 348 343 346 354 4 9 11 13 15 17 21 27 28 28 31 32 33 33 32 28 26 25 25 25 24 23 23 24 24 25 24 24
245 260 277 285 271 257 291 311 313 305 298 281 245 227 225 226 227 232 235 233 232 229 223 217 211 206 199 192 201 215 220 222 226 231 233 237 245 253 255 254 258 262 263 267 273 282 306 326 329 327 327 332 338 342 346 347 340 330 334 344 350 355 3 12 15 16 20 23 25 26 26 27 29 32 31 28 25 24 24 23 23 25 26 26 26 25 26
257 278 287 288 282 282 300 313 312 295 287 280 253 232 226 227 230 235 237 237 239 236 223 211 206 204 197 195 202 207 209 214 218 217 219 224 231 243 252 257 261 264 262 262 270 281 292 304 318 321 324 336 348 348 346 345 342 333 323 324 332 339 347 0 13 15 13 16 20 22 22 20 20 22 26 29 28 27 24 22 21 23 25 26 27 27 27
270 285 294 295 292 293 301 308 304 280 268 271 255 232 224 227 231 235 237 239 241 239 226 212 204 200 199 202 205 204 207 212 211 208 212 216 218 227 238 248 255 260 259 260 268 277 277 280 305 317 315 323 338 343 340 336 333 330 321 312 317 326 333 345 1 6 6 9 13 15 17 16 15 14 17 21 25 28 29 27 24 22 22 23 25 26 27
278 289 296 298 296 294 296 299 292 267 253 258 248 228 223 230 234 235 239 241 237 231 224 215 206 199 200 203 205 205 207 208 208 210 214 215 216 220 227 234 243 250 252 254 260 268 269 264 277 305 313 315 321 328 334 330 324 321 319 314 312 316 322 332 344 353 357 1 7 10 11 10 10 10 12 16 21 23 26 29 30 28 25 22 23 24 26
282 286 289 289 290 291 292 293 290 276 258 251 241 226 223 230 235 235 237 234 228 222 221 218 210 204 203 203 204 207 209 208 211 217 217 215 217 220 224 232 236 240 246 249 251 255 261 260 262 283 306 310 310 316 327 328 322 318 316 315 313 313 317 324 332 340 346 350 357 5 5 3 4 6 8 13 17 19 22 24 25 26 26 24 23 23 24
284 284 281 275 279 289 293 293 294 289 269 249 236 226 224 229 232 232 229 222 215 213 216 216 213 209 207 205 204 208 212 212 215 219 217 214 215 223 230 236 237 238 245 249 247 247 254 258 260 267 287 302 305 311 320 326 325 322 317 317 316 312 312 316 321 327 335 341 349 355 358 359 1 2 6 11 14 15 17 19 19 20 22 23 24 23 22
283 286 285 281 283 292 295 292 290 282 262 245 233 227 228 230 228 227 224 218 212 211 212 213 213 212 212 212 211 212 216 218 218 217 215 210 214 226 234 239 240 241 244 248 248 247 249 254 258 261 270 289 299 304 311 321 325 323 319 321 320 311 306 309 314 321 330 338 343 347 351 356 1 3 6 10 12 13 14 14 14 15 15 18 21 22 21
286 288 286 286 288 290 288 289 289 275 254 242 232 228 230 232 229 226 223 219 217 216 213 211 213 213 214 217 218 219 221 222 220 217 215 213 217 226 233 239 242 245 250 254 253 247 244 249 255 256 258 274 288 296 304 314 320 320 319 323 325 315 306 307 312 319 328 336 342 345 348 353 360 2 3 7 10 12 12 12 13 13 13 13 15 17 19
285 284 281 281 283 282 281 286 288 272 248 238 233 231 231 231 229 228 225 223 223 221 215 213 215 217 219 222 224 224 225 225 223 220 219 219 221 224 231 239 245 251 260 264 257 243 239 244 250 247 245 260 275 287 298 306 312 314 316 320 322 316 308 308 313 317 323 335 349 352 350 351 355 358 360 4 8 11 12 12 13 13 12 12 12 13 15
282 281 280 278 278 276 276 280 280 263 243 234 233 233 232 229 227 226 224 223 224 222 218 216 218 221 224 227 228 228 227 226 226 226 226 226 226 227 233 241 244 246 253 256 250 241 239 242 243 236 231 249 271 284 293 299 302 305 308 313 315 307 300 303 311 313 317 334 359 3 358 354 353 352 355 1 5 8 11 12 12 11 11 10 11 11 12
273 273 276 276 273 271 270 274 274 264 249 237 233 233 234 232 229 227 225 223 223 222 220 220 221 223 226 228 229 230 230 230 230 232 233 232 230 230 234 240 240 236 236 240 243 244 245 243 236 225 225 245 268 280 286 292 294 293 293 298 298 292 287 289 297 306 318 337 357 6 7 3 357 353 353 357 1 5 8 9 9 9 8 6 6 7 9
278 274 279 279 276 273 273 275 275 271 265 252 241 236 234 231 229 228 227 226 225 223 222 222 223 224 226 229 230 231 231 231 232 234 236 236 233 230 231 235 235 231 226 227 232 241 247 245 233 223 226 241 257 268 277 285 285 276 272 278 279 272 268 274 283 298 319 336 350 1 6 6 5 2 359 357 357 360 3 6 7 7 7 5 3 3 3
296 285 284 281 274 270 271 276 277 273 268 261 250 240 234 230 227 228 230 229 228 226 223 224 225 226 226 229 231 232 232 233 235 239 241 240 235 233 233 234 234 230 228 229 230 233 241 240 230 222 226 235 243 253 264 271 268 261 255 257 260 254 245 248 267 291 313 327 340 350 354 356 358 358 356 355 354 355 357 0 2 2 4 4 3 1 359
311 292 282 278 279 279 278 283 291 289 280 268 257 246 238 232 227 227 232 234 232 228 224 224 227 227 227 228 230 231 232 234 237 241 243 242 241 240 239 239 238 236 235 236 232 223 224 228 223 218 221 226 227 233 245 253 253 250 246 245 246 242 229 224 234 253 282 308 323 332 336 339 341 342 341 341 342 343 345 349 351 353 355 358 359 360 0
315 295 276 274 287 292 290 290 295 298 294 283 267 253 244 237 230 228 234 240 237 231 226 224 226 228 228 230 232 233 233 236 239 242 244 245 246 244 243 243 242 240 240 244 243 231 222 221 218 213 212 210 205 206 220 232 240 242 241 239 239 235 226 220 226 241 262 291 309 319 325 328 331 332 330 327 326 327 328 331 335 338 341 345 349 352 355
319 298 276 266 268 270 270 274 281 285 290 290 277 261 251 244 236 231 236 244 241 234 228 225 226 229 231 234 236 237 236 238 240 242 243 246 247 246 246 247 247 246 250 259 263 246 228 220 214 210 209 205 199 197 202 214 228 237 237 233 230 229 226 223 226 239 261 285 303 315 323 327 331 332 329 322 317 314 313 314 318 320 323 328 334 338 343
330 319 304 289 278 267 255 251 263 275 284 290 285 269 258 252 242 234 236 245 244 237 231 228 227 230 234 236 239 241 240 240 242 245 246 248 249 248 248 250 253 258 265 271 269 252 236 225 217 215 217 217 212 206 204 209 220 228 230 227 225 224 226 230 236 245 258 276 291 300 308 318 327 332 331 324 316 309 304 304 306 307 308 312 317 322 328
335 332 325 319 315 302 269 240 240 261 278 288 291 282 270 260 246 235 235 243 245 239 233 229 227 229 233 236 239 241 241 241 244 248 250 253 254 254 254 254 256 260 263 262 255 247 240 232 227 228 232 231 226 220 216 217 221 223 222 222 224 226 230 236 242 250 259 270 280 285 289 296 306 316 320 319 315 308 302 299 299 298 298 300 303 306 311
338 333 327 322 324 323 297 258 246 251 261 272 284 290 288 278 257 241 238 241 244 240 233 228 226 228 233 236 238 240 241 244 248 252 256 258 258 259 259 259 259 262 265 264 258 250 244 239 236 239 243 245 243 237 231 227 227 227 224 222 224 229 235 239 243 251 259 267 273 277 280 283 289 297 304 309 311 309 306 304 302 300 298 297 298 299 299
339 331 322 312 306 308 302 279 263 259 259 262 270 276 278 277 269 256 248 246 245 238 229 224 226 231 236 237 238 240 243 246 250 255 258 258 258 259 261 263 264 265 267 268 262 252 246 244 244 244 244 247 251 253 249 243 238 235 230 227 228 231 234 237 242 250 257 262 266 271 276 280 284 291 299 304 308 311 312 312 310 308 305 302 302 301 301
335 330 321 309 295 285 283 277 269 269 273 274 276 278 274 264 257 254 249 245 242 235 226 223 227 231 234 235 237 240 243 245 249 255 259 258 257 258 261 265 267 265 263 264 262 253 247 249 254 255 252 249 251 255 257 255 249 243 237 233 234 236 236 239 244 248 251 254 260 267 273 278 282 288 295 301 306 312 315 315 314 311 308 306 303 302 302
325 326 321 312 296 283 278 274 268 271 282 287 288 291 285 265 249 243 238 235 232 227 223 224 228 231 232 234 236 236 238 243 253 261 263 260 259 262 265 268 271 270 266 263 259 251 245 248 254 258 256 253 252 252 254 256 255 251 246 242 241 242 242 243 245 247 250 253 259 265 271 275 280 286 293 299 305 310 313 313 312 310 308 306 304 304 303
321 321 321 316 301 284 276 274 275 280 288 291 290 290 287 270 250 240 234 228 221 215 214 220 228 230 230 234 239 243 246 250 255 259 261 263 266 270 273 273 273 273 270 263 257 252 250 252 256 258 257 253 250 249 248 248 248 247 244 241 240 242 245 247 250 253 257 260 262 264 266 270 277 285 292 299 305 309 312 313 312 310 308 306 305 305 306
321 319 318 318 311 294 279 278 281 284 287 289 288 285 277 258 238 227 220 214 208 206 208 213 216 213 214 230 250 264 271 266 258 258 262 266 269 272 275 275 275 275 270 259 250 250 253 256 258 258 255 250 247 247 247 246 245 244 242 239 238 241 247 253 258 262 267 268 267 266 267 271 279 288 294 299 304 307 309 310 309 308 306 305 305 306 307
320 318 316 315 316 316 308 298 292 289 289 287 277 260 238 218 204 197 195 195 198 203 209 210 208 207 221 247 265 273 273 268 265 265 265 266 267 268 270 272 273 269 259 245 239 246 255 257 253 250 248 247 248 249 247 244 244 245 243 240 240 244 253 262 268 272 275 275 273 272 274 279 285 290 293 297 302 305 306 306 307 306 306 306 307 308 309
316 316 315 312 311 311 313 306 296 289 281 259 212 183 176 179 180 177 176 181 193 204 212 216 220 226 237 247 253 253 252 258 266 271 270 268 268 267 266 266 263 258 252 248 248 253 256 254 252 254 256 257 258 257 255 255 258 258 254 248 248 253 262 270 273 273 273 272 271 270 273 276 280 284 289 294 299 302 304 305 306 306 306 306 307 307 308
310 309 311 309 302 287 258 236 285 303 256 214 201 198 202 206 204 198 197 219 237 242 240 235 229 223 218 217 221 226 231 240 259 276 277 274 271 266 261 260 259 255 252 251 253 254 253 254 258 265 270 271 271 272 274 279 284 279 267 260 259 260 262 263 264 264 264 264 264 264 266 270 275 282 288 293 297 299 301 302 302 302 302 302 302 303 305
308 304 304 304 297 269 225 211 281 312 303 285 277 272 260 248 243 245 249 252 253 251 243 223 199 194 201 210 218 223 220 219 238 266 275 276 277 274 267 263 261 259 258 257 258 259 260 261 264 267 269 271 276 280 278 274 268 261 255 253 255 255 255 256 257 259 260 261 261 263 267 273 279 285 290 293 295 295 295 294 294 294 295 296 298 300 302
302 298 296 295 287 261 234 241 276 292 291 285 281 276 269 263 257 249 244 239 231 219 206 201 205 216 224 224 219 215 213 220 240 258 265 268 271 271 265 259 258 262 265 268 270 269 264 258 255 256 260 263 265 266 263 259 257 255 252 250 250 252 253 255 257 259 262 264 267 272 277 283 288 291 293 294 293 292 291 290 290 291 292 294 296 299 301
298 295 290 283 275 267 261 266 275 280 279 276 273 269 264 262 259 249 236 224 213 206 209 220 233 241 239 227 213 207 217 238 250 253 254 259 265 266 261 256 255 258 261 264 266 264 260 256 256 258 260 259 256 253 251 250 251 251 252 253 255 258 260 262 265 267 270 274 279 283 287 290 292 292 291 290 289 288 288 288 288 289 290 291 294 296 299